SKYNET 5A

Last updated on Thu Aug 13 2026 00:02:57 GMT+0000 (Coordinated Universal Time)

1 30794U 07007B 26224.51966124 -.00000289 00000+0 00000+0 0 9995 2 30794 5.4385 73.0341 0003451 74.4742 95.7405 1.00269780 71268
UTC large
Height (km)
Speed (km/s)
/
Latitude / Longitude
Inclination (degrees)
Orbital Period (minutes)
Azimuth
Elevation
Range (km)
Doppler Factor

Next 0 passes for location: London (51.5072 / 0.1276)

No passes found over London.